Year,Month,Day,Hour,Minute,Value (Times are PST for temperature in C)
2021,04,24,00,00,8.00
2021,04,24,00,01,8.10
2021,04,24,00,02,8.10
2021,04,24,00,03,8.00
2021,04,24,00,04,8.10
2021,04,24,00,05,8.10
2021,04,24,00,06,8.10
2021,04,24,00,07,8.10
2021,04,24,00,08,8.10
2021,04,24,00,09,8.00
2021,04,24,00,10,8.00
2021,04,24,00,11,8.00
2021,04,24,00,12,8.00
2021,04,24,00,13,8.00
2021,04,24,00,14,8.00
2021,04,24,00,15,7.90
2021,04,24,00,16,7.90
2021,04,24,00,17,7.90
2021,04,24,00,18,7.90
2021,04,24,00,19,7.90
2021,04,24,00,20,7.90
2021,04,24,00,21,7.90
2021,04,24,00,22,7.90
2021,04,24,00,23,7.90
2021,04,24,00,24,7.90
2021,04,24,00,25,7.90
2021,04,24,00,26,7.90
2021,04,24,00,27,7.90
2021,04,24,00,28,7.90
2021,04,24,00,29,7.90
2021,04,24,00,30,7.90
2021,04,24,00,31,7.90
2021,04,24,00,32,7.90
2021,04,24,00,33,7.90
2021,04,24,00,34,7.90
2021,04,24,00,35,7.90
2021,04,24,00,36,7.90
2021,04,24,00,37,7.90
2021,04,24,00,38,7.90
2021,04,24,00,39,7.90
2021,04,24,00,40,7.90
2021,04,24,00,41,7.90
2021,04,24,00,42,7.90
2021,04,24,00,43,7.90
2021,04,24,00,44,7.90
2021,04,24,00,45,7.90
2021,04,24,00,46,7.80
2021,04,24,00,47,7.80
2021,04,24,00,48,7.80
2021,04,24,00,49,7.80
2021,04,24,00,50,7.80
2021,04,24,00,51,7.80
2021,04,24,00,52,7.80
2021,04,24,00,53,7.80
2021,04,24,00,54,7.80
2021,04,24,00,55,7.80
2021,04,24,00,56,7.80
2021,04,24,00,57,7.80
2021,04,24,00,58,7.80
2021,04,24,00,59,7.80
2021,04,24,01,00,7.80
2021,04,24,01,01,7.80
2021,04,24,01,02,7.80
2021,04,24,01,03,7.70
2021,04,24,01,04,7.70
2021,04,24,01,05,7.70
2021,04,24,01,06,7.70
2021,04,24,01,07,7.70
2021,04,24,01,08,7.70
2021,04,24,01,09,7.70
2021,04,24,01,10,7.70
2021,04,24,01,11,7.70
2021,04,24,01,12,7.70
2021,04,24,01,13,7.70
2021,04,24,01,14,7.70
2021,04,24,01,15,7.70
2021,04,24,01,16,7.70
2021,04,24,01,17,7.70
2021,04,24,01,18,7.80
2021,04,24,01,19,7.80
2021,04,24,01,20,7.80
2021,04,24,01,21,7.80
2021,04,24,01,22,7.70
2021,04,24,01,23,7.70
2021,04,24,01,24,7.70
2021,04,24,01,25,7.70
2021,04,24,01,26,7.70
2021,04,24,01,27,7.70
2021,04,24,01,28,7.70
2021,04,24,01,29,7.70
2021,04,24,01,30,7.70
2021,04,24,01,31,7.70
2021,04,24,01,32,7.70
2021,04,24,01,33,7.70
2021,04,24,01,34,7.70
2021,04,24,01,35,7.60
2021,04,24,01,36,7.60
2021,04,24,01,37,7.60
2021,04,24,01,38,7.60
2021,04,24,01,39,7.60
2021,04,24,01,40,7.60
2021,04,24,01,41,7.60
2021,04,24,01,42,7.60
2021,04,24,01,43,7.60
2021,04,24,01,44,7.60
2021,04,24,01,45,7.60
2021,04,24,01,46,7.60
2021,04,24,01,47,7.60
2021,04,24,01,48,7.50
2021,04,24,01,49,7.50
2021,04,24,01,50,7.50
2021,04,24,01,51,7.50
2021,04,24,01,52,7.50
2021,04,24,01,53,7.50
2021,04,24,01,54,7.50
2021,04,24,01,55,7.60
2021,04,24,01,56,7.60
2021,04,24,01,57,7.60
2021,04,24,01,58,7.60
2021,04,24,01,59,7.60
2021,04,24,02,00,7.60
2021,04,24,02,01,7.60
2021,04,24,02,02,7.60
2021,04,24,02,03,7.60
2021,04,24,02,04,7.60
2021,04,24,02,05,7.60
2021,04,24,02,06,7.60
2021,04,24,02,07,7.60
2021,04,24,02,08,7.60
2021,04,24,02,09,7.60
2021,04,24,02,10,7.60
2021,04,24,02,11,7.60
2021,04,24,02,12,7.60
2021,04,24,02,13,7.60
2021,04,24,02,14,7.60
2021,04,24,02,15,7.50
2021,04,24,02,16,7.60
2021,04,24,02,17,7.60
2021,04,24,02,18,7.60
2021,04,24,02,19,7.50
2021,04,24,02,20,7.50
2021,04,24,02,21,7.50
2021,04,24,02,22,7.50
2021,04,24,02,23,7.50
2021,04,24,02,24,7.50
2021,04,24,02,25,7.50
2021,04,24,02,26,7.50
2021,04,24,02,27,7.50
2021,04,24,02,28,7.50
2021,04,24,02,29,7.50
2021,04,24,02,30,7.50
2021,04,24,02,31,7.50
2021,04,24,02,32,7.50
2021,04,24,02,33,7.50
2021,04,24,02,34,7.50
2021,04,24,02,35,7.40
2021,04,24,02,36,7.40
2021,04,24,02,37,7.40
2021,04,24,02,38,7.40
2021,04,24,02,39,7.40
2021,04,24,02,40,7.40
2021,04,24,02,41,7.40
2021,04,24,02,42,7.40
2021,04,24,02,43,7.40
2021,04,24,02,44,7.40
2021,04,24,02,45,7.40
2021,04,24,02,46,7.40
2021,04,24,02,47,7.40
2021,04,24,02,48,7.40
2021,04,24,02,49,7.40
2021,04,24,02,50,7.40
2021,04,24,02,51,7.40
2021,04,24,02,52,7.40
2021,04,24,02,53,7.40
2021,04,24,02,54,7.40
2021,04,24,02,55,7.40
2021,04,24,02,56,7.40
2021,04,24,02,57,7.40
2021,04,24,02,58,7.40
2021,04,24,02,59,7.40
2021,04,24,03,00,7.40
2021,04,24,03,01,7.40
2021,04,24,03,02,7.40
2021,04,24,03,03,7.40
2021,04,24,03,04,7.40
2021,04,24,03,05,7.40
2021,04,24,03,06,7.40
2021,04,24,03,07,7.40
2021,04,24,03,08,7.40
2021,04,24,03,09,7.40
2021,04,24,03,10,7.30
2021,04,24,03,11,7.30
2021,04,24,03,12,7.30
2021,04,24,03,13,7.30
2021,04,24,03,14,7.30
2021,04,24,03,15,7.30
2021,04,24,03,16,7.30
2021,04,24,03,17,7.30
2021,04,24,03,18,7.30
2021,04,24,03,19,7.30
2021,04,24,03,20,7.30
2021,04,24,03,21,7.30
2021,04,24,03,22,7.30
2021,04,24,03,23,7.30
2021,04,24,03,24,7.30
2021,04,24,03,25,7.30
2021,04,24,03,26,7.30
2021,04,24,03,27,7.30
2021,04,24,03,28,7.30
2021,04,24,03,29,7.30
2021,04,24,03,30,7.30
2021,04,24,03,31,7.30
2021,04,24,03,32,7.30
2021,04,24,03,33,7.30
2021,04,24,03,34,7.30
2021,04,24,03,35,7.30
2021,04,24,03,36,7.30
2021,04,24,03,37,7.30
2021,04,24,03,38,7.30
2021,04,24,03,39,7.30
2021,04,24,03,40,7.30
2021,04,24,03,41,7.30
2021,04,24,03,42,7.30
2021,04,24,03,43,7.30
2021,04,24,03,44,7.20
2021,04,24,03,45,7.20
2021,04,24,03,46,7.20
2021,04,24,03,47,7.20
2021,04,24,03,48,7.20
2021,04,24,03,49,7.20
2021,04,24,03,50,7.20
2021,04,24,03,51,7.20
2021,04,24,03,52,7.20
2021,04,24,03,53,7.20
2021,04,24,03,54,7.20
2021,04,24,03,55,7.20
2021,04,24,03,56,7.20
2021,04,24,03,57,7.20
2021,04,24,03,58,7.20
2021,04,24,03,59,7.20
2021,04,24,04,00,7.20
2021,04,24,04,01,7.20
2021,04,24,04,02,7.20
2021,04,24,04,03,7.20
2021,04,24,04,04,7.20
2021,04,24,04,05,7.20
2021,04,24,04,06,7.10
2021,04,24,04,07,7.10
2021,04,24,04,08,7.10
2021,04,24,04,09,7.20
2021,04,24,04,10,7.20
2021,04,24,04,11,7.20
2021,04,24,04,12,7.20
2021,04,24,04,13,7.10
2021,04,24,04,14,7.10
2021,04,24,04,15,7.10
2021,04,24,04,16,7.10
2021,04,24,04,17,7.10
2021,04,24,04,18,7.10
2021,04,24,04,19,7.10
2021,04,24,04,20,7.10
2021,04,24,04,21,7.10
2021,04,24,04,22,7.10
2021,04,24,04,23,7.10
2021,04,24,04,24,7.10
2021,04,24,04,25,7.10
2021,04,24,04,26,7.10
2021,04,24,04,27,7.10
2021,04,24,04,28,7.10
2021,04,24,04,29,7.10
2021,04,24,04,30,7.10
2021,04,24,04,31,7.10
2021,04,24,04,32,7.10
2021,04,24,04,33,7.10
2021,04,24,04,34,7.10
2021,04,24,04,35,7.10
2021,04,24,04,36,7.10
2021,04,24,04,37,7.10
2021,04,24,04,38,7.10
2021,04,24,04,39,7.10
2021,04,24,04,40,7.10
2021,04,24,04,41,7.10
2021,04,24,04,42,7.10
2021,04,24,04,43,7.10
2021,04,24,04,44,7.10
2021,04,24,04,45,7.10
2021,04,24,04,46,7.10
2021,04,24,04,47,7.10
2021,04,24,04,48,7.10
2021,04,24,04,49,7.10
2021,04,24,04,50,7.10
2021,04,24,04,51,7.10
2021,04,24,04,52,7.10
2021,04,24,04,53,7.10
2021,04,24,04,54,7.10
2021,04,24,04,55,7.10
2021,04,24,04,56,7.10
2021,04,24,04,57,7.10
2021,04,24,04,58,7.10
2021,04,24,04,59,7.10
2021,04,24,05,00,7.10
2021,04,24,05,01,7.20
2021,04,24,05,02,7.20
2021,04,24,05,03,7.20
2021,04,24,05,04,7.20
2021,04,24,05,05,7.20
2021,04,24,05,06,7.20
2021,04,24,05,07,7.20
2021,04,24,05,08,7.20
2021,04,24,05,09,7.20
2021,04,24,05,10,7.20
2021,04,24,05,11,7.20
2021,04,24,05,12,7.20
2021,04,24,05,13,7.20
2021,04,24,05,14,7.20
2021,04,24,05,15,7.20
2021,04,24,05,16,7.20
2021,04,24,05,17,7.20
2021,04,24,05,18,7.20
2021,04,24,05,19,7.20
2021,04,24,05,20,7.20
2021,04,24,05,21,7.20
2021,04,24,05,22,7.20
2021,04,24,05,23,7.20
2021,04,24,05,24,7.20
2021,04,24,05,25,7.20
2021,04,24,05,26,7.20
2021,04,24,05,27,7.20
2021,04,24,05,28,7.20
2021,04,24,05,29,7.20
2021,04,24,05,30,7.20
2021,04,24,05,31,7.20
2021,04,24,05,32,7.20
2021,04,24,05,33,7.10
2021,04,24,05,34,7.10
2021,04,24,05,35,7.10
2021,04,24,05,36,7.10
2021,04,24,05,37,7.10
2021,04,24,05,38,7.10
2021,04,24,05,39,7.10
2021,04,24,05,40,7.10
2021,04,24,05,41,7.10
2021,04,24,05,42,7.10
2021,04,24,05,43,7.10
2021,04,24,05,44,7.10
2021,04,24,05,45,7.10
2021,04,24,05,46,7.10
2021,04,24,05,47,7.10
2021,04,24,05,48,7.10
2021,04,24,05,49,7.10
2021,04,24,05,50,7.00
2021,04,24,05,51,7.00
2021,04,24,05,52,7.00
2021,04,24,05,53,7.00
2021,04,24,05,54,7.00
2021,04,24,05,55,7.00
2021,04,24,05,56,7.00
2021,04,24,05,57,7.00
2021,04,24,05,58,7.00
2021,04,24,05,59,7.00
2021,04,24,06,00,7.00
2021,04,24,06,01,7.00
2021,04,24,06,02,7.00
2021,04,24,06,03,7.00
2021,04,24,06,04,7.00
2021,04,24,06,05,7.00
2021,04,24,06,06,7.00
2021,04,24,06,07,6.90
2021,04,24,06,08,6.90
2021,04,24,06,09,6.90
2021,04,24,06,10,6.90
2021,04,24,06,11,6.90
2021,04,24,06,12,6.90
2021,04,24,06,13,6.90
2021,04,24,06,14,6.90
2021,04,24,06,15,6.90
2021,04,24,06,16,6.90
2021,04,24,06,17,6.90
2021,04,24,06,18,6.90
2021,04,24,06,19,6.90
2021,04,24,06,20,6.90
2021,04,24,06,21,6.90
2021,04,24,06,22,6.90
2021,04,24,06,23,6.90
2021,04,24,06,24,6.90
2021,04,24,06,25,6.90
2021,04,24,06,26,6.90
2021,04,24,06,27,6.90
2021,04,24,06,28,6.90
2021,04,24,06,29,6.90
2021,04,24,06,30,6.90
2021,04,24,06,31,6.90
2021,04,24,06,32,6.90
2021,04,24,06,33,6.90
2021,04,24,06,34,6.90
2021,04,24,06,35,7.00
2021,04,24,06,36,6.90
2021,04,24,06,37,7.00
2021,04,24,06,38,7.00
2021,04,24,06,39,7.00
2021,04,24,06,40,7.00
2021,04,24,06,41,7.00
2021,04,24,06,42,7.00
2021,04,24,06,43,7.00
2021,04,24,06,44,7.00
2021,04,24,06,45,7.00
2021,04,24,06,46,7.00
2021,04,24,06,47,7.00
2021,04,24,06,48,7.00
2021,04,24,06,49,7.00
2021,04,24,06,50,7.00
2021,04,24,06,51,7.00
2021,04,24,06,52,7.00
2021,04,24,06,53,7.00
2021,04,24,06,54,7.00
2021,04,24,06,55,7.00
2021,04,24,06,56,7.00
2021,04,24,06,57,7.00
2021,04,24,06,58,7.00
2021,04,24,06,59,7.00
2021,04,24,07,00,7.10
2021,04,24,07,01,7.00
2021,04,24,07,02,7.00
2021,04,24,07,03,7.00
2021,04,24,07,04,7.00
2021,04,24,07,05,7.00
2021,04,24,07,06,7.00
2021,04,24,07,07,7.00
2021,04,24,07,08,7.00
2021,04,24,07,09,7.00
2021,04,24,07,10,7.00
2021,04,24,07,11,7.00
2021,04,24,07,12,7.00
2021,04,24,07,13,7.00
2021,04,24,07,14,6.90
2021,04,24,07,15,6.90
2021,04,24,07,16,6.90
2021,04,24,07,17,6.90
2021,04,24,07,18,6.90
2021,04,24,07,19,6.90
2021,04,24,07,20,6.90
2021,04,24,07,21,7.00
2021,04,24,07,22,7.00
2021,04,24,07,23,7.00
2021,04,24,07,24,7.00
2021,04,24,07,25,7.00
2021,04,24,07,26,7.00
2021,04,24,07,27,7.00
2021,04,24,07,28,7.00
2021,04,24,07,29,7.00
2021,04,24,07,30,7.00
2021,04,24,07,31,7.00
2021,04,24,07,32,7.00
2021,04,24,07,33,7.00
2021,04,24,07,34,7.10
2021,04,24,07,35,7.10
2021,04,24,07,36,7.10
2021,04,24,07,37,7.10
2021,04,24,07,38,7.10
2021,04,24,07,39,7.10
2021,04,24,07,40,7.10
2021,04,24,07,41,7.20
2021,04,24,07,42,7.20
2021,04,24,07,43,7.20
2021,04,24,07,44,7.20
2021,04,24,07,45,7.20
2021,04,24,07,46,7.20
2021,04,24,07,47,7.20
2021,04,24,07,48,7.20
2021,04,24,07,49,7.20
2021,04,24,07,50,7.20
2021,04,24,07,51,7.20
2021,04,24,07,52,7.20
2021,04,24,07,53,7.20
2021,04,24,07,54,7.20
2021,04,24,07,55,7.20
2021,04,24,07,56,7.20
2021,04,24,07,57,7.20
2021,04,24,07,58,7.20
2021,04,24,07,59,7.20
2021,04,24,08,00,7.20
2021,04,24,08,01,7.20
2021,04,24,08,02,7.20
2021,04,24,08,03,7.20
2021,04,24,08,04,7.20
2021,04,24,08,05,7.20
2021,04,24,08,06,7.20
2021,04,24,08,07,7.20
2021,04,24,08,08,7.20
2021,04,24,08,09,7.20
2021,04,24,08,10,7.20
2021,04,24,08,11,7.30
2021,04,24,08,12,7.20
2021,04,24,08,13,7.20
2021,04,24,08,14,7.20
2021,04,24,08,15,7.20
2021,04,24,08,16,7.20
2021,04,24,08,17,7.20
2021,04,24,08,18,7.20
2021,04,24,08,19,7.20
2021,04,24,08,20,7.30
2021,04,24,08,21,7.30
2021,04,24,08,22,7.30
2021,04,24,08,23,7.30
2021,04,24,08,24,7.30
2021,04,24,08,25,7.30
2021,04,24,08,26,7.30
2021,04,24,08,27,7.30
2021,04,24,08,28,7.30
2021,04,24,08,29,7.30
2021,04,24,08,30,7.40
2021,04,24,08,31,7.40
2021,04,24,08,32,7.40
2021,04,24,08,33,7.40
2021,04,24,08,34,7.50
2021,04,24,08,35,7.50
2021,04,24,08,36,7.60
2021,04,24,08,37,7.60
2021,04,24,08,38,7.60
2021,04,24,08,39,7.60
2021,04,24,08,40,7.60
2021,04,24,08,41,7.60
2021,04,24,08,42,7.60
2021,04,24,08,43,7.60
2021,04,24,08,44,7.60
2021,04,24,08,45,7.60
2021,04,24,08,46,7.70
2021,04,24,08,47,7.70
2021,04,24,08,48,7.70
2021,04,24,08,49,7.70
2021,04,24,08,50,7.70
2021,04,24,08,51,7.80
2021,04,24,08,52,7.80
2021,04,24,08,53,7.80
2021,04,24,08,54,7.80
2021,04,24,08,55,7.90
2021,04,24,08,56,7.90
2021,04,24,08,57,7.90
2021,04,24,08,58,8.00
2021,04,24,08,59,8.00
2021,04,24,09,00,8.10
2021,04,24,09,01,8.10
2021,04,24,09,02,8.20
2021,04,24,09,03,8.30
2021,04,24,09,04,8.30
2021,04,24,09,05,8.40
2021,04,24,09,06,8.40
2021,04,24,09,07,8.40
2021,04,24,09,08,8.40
2021,04,24,09,09,8.40
2021,04,24,09,10,8.40
2021,04,24,09,11,8.40
2021,04,24,09,12,8.40
2021,04,24,09,13,8.50
2021,04,24,09,14,8.50
2021,04,24,09,15,8.50
2021,04,24,09,16,8.50
2021,04,24,17,15,10.50
2021,04,24,17,16,10.50
2021,04,24,17,17,10.50
2021,04,24,17,18,10.50
2021,04,24,17,19,10.50
2021,04,24,17,20,10.50
2021,04,24,17,21,10.50
2021,04,24,17,22,10.50
2021,04,24,17,23,10.50
2021,04,24,17,24,10.60
2021,04,24,17,25,10.60
2021,04,24,17,26,10.60
2021,04,24,17,27,10.60
2021,04,24,17,28,10.60
2021,04,24,17,29,10.60
2021,04,24,17,30,10.60
2021,04,24,17,31,10.60
2021,04,24,17,32,10.60
2021,04,24,17,33,10.60
2021,04,24,17,34,10.50
2021,04,24,17,35,10.50
2021,04,24,17,36,10.60
2021,04,24,17,37,10.50
2021,04,24,17,38,10.50
2021,04,24,17,39,10.50
2021,04,24,17,40,10.50
2021,04,24,17,41,10.40
2021,04,24,17,42,10.40
2021,04,24,17,43,10.40
2021,04,24,17,44,10.40
2021,04,24,17,45,10.40
2021,04,24,17,46,10.30
2021,04,24,17,47,10.30
2021,04,24,17,48,10.30
2021,04,24,17,49,10.30
2021,04,24,17,50,10.20
2021,04,24,17,51,10.20
2021,04,24,17,52,10.20
2021,04,24,17,53,10.20
2021,04,24,17,54,10.20
2021,04,24,17,55,10.20
2021,04,24,17,56,10.20
2021,04,24,17,57,10.10
2021,04,24,17,58,10.10
2021,04,24,17,59,10.10
2021,04,24,18,00,10.10
2021,04,24,18,01,10.10
2021,04,24,18,02,10.10
2021,04,24,18,03,10.10
2021,04,24,18,04,10.00
2021,04,24,18,05,10.00
2021,04,24,18,20,10.00
2021,04,24,18,21,10.00
2021,04,24,18,22,9.90
2021,04,24,18,23,9.90
2021,04,24,18,24,9.90
2021,04,24,18,25,9.90
2021,04,24,18,26,9.80
2021,04,24,18,27,9.80
2021,04,24,18,28,9.80
2021,04,24,18,29,9.80
2021,04,24,18,30,9.70
2021,04,24,18,31,9.70
2021,04,24,18,32,9.70
2021,04,24,18,33,9.70
2021,04,24,18,34,9.70
2021,04,24,18,35,9.70
2021,04,24,18,36,9.70
2021,04,24,18,37,9.70
2021,04,24,18,38,9.70
2021,04,24,18,39,9.70
2021,04,24,18,40,9.70
2021,04,24,18,41,9.60
2021,04,24,18,42,9.60
2021,04,24,18,43,9.60
2021,04,24,18,44,9.60
2021,04,24,18,45,9.60
2021,04,24,18,46,9.60
2021,04,24,18,47,9.60
2021,04,24,18,48,9.60
2021,04,24,18,49,9.60
2021,04,24,18,50,9.60
2021,04,24,18,51,9.60
2021,04,24,18,52,9.50
2021,04,24,18,53,9.50
2021,04,24,18,54,9.50
2021,04,24,18,55,9.50
2021,04,24,18,56,9.50
2021,04,24,18,57,9.40
2021,04,24,18,58,9.40
2021,04,24,18,59,9.50
2021,04,24,19,00,9.50
2021,04,24,19,01,9.50
2021,04,24,19,02,9.50
2021,04,24,19,03,9.50
2021,04,24,19,04,9.50
2021,04,24,19,05,9.50
2021,04,24,19,06,9.50
2021,04,24,19,07,9.40
2021,04,24,19,08,9.40
2021,04,24,19,09,9.40
2021,04,24,19,10,9.40
2021,04,24,19,11,9.40
2021,04,24,19,12,9.40
2021,04,24,19,13,9.40
2021,04,24,19,14,9.40
2021,04,24,19,15,9.40
2021,04,24,19,16,9.30
2021,04,24,19,17,9.30
2021,04,24,19,18,9.30
2021,04,24,19,19,9.30
2021,04,24,19,20,9.30
2021,04,24,19,21,9.30
2021,04,24,19,22,9.40
2021,04,24,19,23,9.40
2021,04,24,19,24,9.40
2021,04,24,19,25,9.30
2021,04,24,19,26,9.30
2021,04,24,19,27,9.30
2021,04,24,19,28,9.30
2021,04,24,19,29,9.30
2021,04,24,19,30,9.30
2021,04,24,19,31,9.30
2021,04,24,19,32,9.30
2021,04,24,19,33,9.30
2021,04,24,19,34,9.30
2021,04,24,19,35,9.30
2021,04,24,19,36,9.30
2021,04,24,19,37,9.30
2021,04,24,19,38,9.30
2021,04,24,19,39,9.30
2021,04,24,19,40,9.20
2021,04,24,19,41,9.20
2021,04,24,19,42,9.20
2021,04,24,19,43,9.20
2021,04,24,19,44,9.20
2021,04,24,19,45,9.20
2021,04,24,19,46,9.10
2021,04,24,19,47,9.10
2021,04,24,19,48,9.10
2021,04,24,19,49,9.10
2021,04,24,19,50,9.10
2021,04,24,19,51,9.10
2021,04,24,19,52,9.10
2021,04,24,19,53,9.10
2021,04,24,19,54,9.10
2021,04,24,19,55,9.10
2021,04,24,19,56,9.10
2021,04,24,19,57,9.00
2021,04,24,19,58,9.00
2021,04,24,19,59,9.00
2021,04,24,20,00,9.00
2021,04,24,20,01,8.90
2021,04,24,20,02,8.90
2021,04,24,20,03,8.90
2021,04,24,20,04,8.90
2021,04,24,20,05,8.80
2021,04,24,20,06,8.80
2021,04,24,20,07,8.80
2021,04,24,20,08,8.80
2021,04,24,20,09,8.80
2021,04,24,20,10,8.80
2021,04,24,20,11,8.80
2021,04,24,20,12,8.80
2021,04,24,20,13,8.70
2021,04,24,20,14,8.70
2021,04,24,20,15,8.70
2021,04,24,20,16,8.70
2021,04,24,20,17,8.70
2021,04,24,20,18,8.70
2021,04,24,20,19,8.70
2021,04,24,20,20,8.70
2021,04,24,20,21,8.70
2021,04,24,20,22,8.70
2021,04,24,20,23,8.60
2021,04,24,20,24,8.60
2021,04,24,20,25,8.60
2021,04,24,20,26,8.60
2021,04,24,20,27,8.60
2021,04,24,20,28,8.60
2021,04,24,20,29,8.60
2021,04,24,20,30,8.60
2021,04,24,20,31,8.60
2021,04,24,20,32,8.60
2021,04,24,20,33,8.60
2021,04,24,20,34,8.60
2021,04,24,20,35,8.60
2021,04,24,20,36,8.60
2021,04,24,20,37,8.60
2021,04,24,20,38,8.60
2021,04,24,20,39,8.60
2021,04,24,20,40,8.50
2021,04,24,20,41,8.50
2021,04,24,20,42,8.50
2021,04,24,20,43,8.50
2021,04,24,20,44,8.50
2021,04,24,20,45,8.50
2021,04,24,20,46,8.50
2021,04,24,20,47,8.50
2021,04,24,20,48,8.50
2021,04,24,20,49,8.50
2021,04,24,20,50,8.50
2021,04,24,20,51,8.50
2021,04,24,20,52,8.50
2021,04,24,20,53,8.50
2021,04,24,20,54,8.50
2021,04,24,20,55,8.60
2021,04,24,20,56,8.60
2021,04,24,20,57,8.60
2021,04,24,20,58,8.60
2021,04,24,20,59,8.50
2021,04,24,21,00,8.50
2021,04,24,21,01,8.50
2021,04,24,21,02,8.50
2021,04,24,21,03,8.50
2021,04,24,21,04,8.40
2021,04,24,21,05,8.40
2021,04,24,21,06,8.40
2021,04,24,21,07,8.40
2021,04,24,21,08,8.30
2021,04,24,21,09,8.30
2021,04,24,21,10,8.30
2021,04,24,21,11,8.30
2021,04,24,21,12,8.30
2021,04,24,21,13,8.40
2021,04,24,21,14,8.40
2021,04,24,21,15,8.30
2021,04,24,21,16,8.30
2021,04,24,21,17,8.30
2021,04,24,21,18,8.30
2021,04,24,21,19,8.30
2021,04,24,21,20,8.30
2021,04,24,21,21,8.30
2021,04,24,21,22,8.30
2021,04,24,21,23,8.30
2021,04,24,21,24,8.30
2021,04,24,21,25,8.30
2021,04,24,21,26,8.30
2021,04,24,21,27,8.30
2021,04,24,21,28,8.30
2021,04,24,21,29,8.30
2021,04,24,21,30,8.30
2021,04,24,21,31,8.30
2021,04,24,21,32,8.30
2021,04,24,21,33,8.30
2021,04,24,21,34,8.30
2021,04,24,21,35,8.30
2021,04,24,21,36,8.30
2021,04,24,21,37,8.30
2021,04,24,21,38,8.30
2021,04,24,21,39,8.30
2021,04,24,21,40,8.30
2021,04,24,21,41,8.30
2021,04,24,21,42,8.30
2021,04,24,21,43,8.30
2021,04,24,21,44,8.30
2021,04,24,21,45,8.30
2021,04,24,21,46,8.30
2021,04,24,21,47,8.30
2021,04,24,21,48,8.30
2021,04,24,21,49,8.30
2021,04,24,21,50,8.30
2021,04,24,21,51,8.30
2021,04,24,21,52,8.30
2021,04,24,21,53,8.30
2021,04,24,21,54,8.30
2021,04,24,21,55,8.30
2021,04,24,21,56,8.30
2021,04,24,21,57,8.30
2021,04,24,21,58,8.30
2021,04,24,21,59,8.30
2021,04,24,22,00,8.30
2021,04,24,22,01,8.30
2021,04,24,22,02,8.30
2021,04,24,22,03,8.30
2021,04,24,22,04,8.30
2021,04,24,22,05,8.30
2021,04,24,22,06,8.30
2021,04,24,22,07,8.30
2021,04,24,22,08,8.30
2021,04,24,22,09,8.30
2021,04,24,22,10,8.30
2021,04,24,22,11,8.30
2021,04,24,22,12,8.20
2021,04,24,22,13,8.20
2021,04,24,22,14,8.20
2021,04,24,22,15,8.20
2021,04,24,22,16,8.20
2021,04,24,22,17,8.20
2021,04,24,22,18,8.20
2021,04,24,22,19,8.20
2021,04,24,22,20,8.20
2021,04,24,22,21,8.20
2021,04,24,22,22,8.20
2021,04,24,22,23,8.20
2021,04,24,22,24,8.20
2021,04,24,22,25,8.20
2021,04,24,22,26,8.20
2021,04,24,22,27,8.20
2021,04,24,22,28,8.20
2021,04,24,22,29,8.20
2021,04,24,22,30,8.20
2021,04,24,22,31,8.20
2021,04,24,22,32,8.20
2021,04,24,22,33,8.20
2021,04,24,22,34,8.20
2021,04,24,22,35,8.20
2021,04,24,22,36,8.20
2021,04,24,22,37,8.20
2021,04,24,22,38,8.20
2021,04,24,22,39,8.20
2021,04,24,22,40,8.20
2021,04,24,22,41,8.20
2021,04,24,22,42,8.20
2021,04,24,22,43,8.20
2021,04,24,22,44,8.20
2021,04,24,22,45,8.20
2021,04,24,22,46,8.20
2021,04,24,22,47,8.20
2021,04,24,22,48,8.20
2021,04,24,22,49,8.20
2021,04,24,22,50,8.20
2021,04,24,22,51,8.20
2021,04,24,22,52,8.20
2021,04,24,22,53,8.20
2021,04,24,22,54,8.20
2021,04,24,22,55,8.20
2021,04,24,22,56,8.20
2021,04,24,22,57,8.20
2021,04,24,22,58,8.20
2021,04,24,22,59,8.20
2021,04,24,23,00,8.20
2021,04,24,23,01,8.20
2021,04,24,23,02,8.20
2021,04,24,23,03,8.10
2021,04,24,23,04,8.10
2021,04,24,23,05,8.10
2021,04,24,23,06,8.10
2021,04,24,23,07,8.10
2021,04,24,23,08,8.10
2021,04,24,23,09,8.10
2021,04,24,23,10,8.10
2021,04,24,23,11,8.10
2021,04,24,23,12,8.10
2021,04,24,23,13,8.10
2021,04,24,23,14,8.10
2021,04,24,23,15,8.10
2021,04,24,23,16,8.10
2021,04,24,23,17,8.10
2021,04,24,23,18,8.10
2021,04,24,23,19,8.10
2021,04,24,23,20,8.10
2021,04,24,23,21,8.10
2021,04,24,23,22,8.10
2021,04,24,23,23,8.10
2021,04,24,23,24,8.10
2021,04,24,23,25,8.10
2021,04,24,23,26,8.10
2021,04,24,23,27,8.10
2021,04,24,23,28,8.10
2021,04,24,23,29,8.10
2021,04,24,23,30,8.10
2021,04,24,23,31,8.10
2021,04,24,23,32,8.10
2021,04,24,23,33,8.10
2021,04,24,23,34,8.10
2021,04,24,23,35,8.10
2021,04,24,23,36,8.10
2021,04,24,23,37,8.10
2021,04,24,23,38,8.10
2021,04,24,23,39,8.10
2021,04,24,23,40,8.10
2021,04,24,23,41,8.10
2021,04,24,23,42,8.10
2021,04,24,23,43,8.10
2021,04,24,23,44,8.10
2021,04,24,23,45,8.10
2021,04,24,23,46,8.10
2021,04,24,23,47,8.10
2021,04,24,23,48,8.10
2021,04,24,23,49,8.10
2021,04,24,23,50,8.10
2021,04,24,23,51,8.10
2021,04,24,23,52,8.10
2021,04,24,23,53,8.10
2021,04,24,23,54,8.10
2021,04,24,23,55,8.10
2021,04,24,23,56,8.10
2021,04,24,23,57,8.10
2021,04,24,23,58,8.10
2021,04,24,23,59,8.10
